STARLINK-5211 (54086 NORAD) Tracking and Keplerian Element Data

This shows tracking and keplerian element data for the satellite.

Feedback or suggestion? Click here.




ElementValue
Catalog54086
NameSTARLINK-5211
Epoch Orbit549
Epoch Day325.33334491
Epoch Year2022
RAAN350.8948
Inclination53.2151
Eccentricity0.0004431
Argument of Perigee0.5395
Mean Anonmoly344.8904
Mean Motion15.73177433
Decay Rate0.00031688
L11 54086U 22136AM 22325.33334491 .00031688 00000+0 22948-3 0 9994
L22 54086 53.2151 350.8948 0004431 0.5395 344.8904 15.73177433 5494



Live tracking and technical data element details for STARLINK-5211 (NORAD 54086). STARLINK-5211 can be tracked NOW for your location showing map with azimuth and elevation plus other details from your city location.







IsCatalogInMostPopularTable: catalog: 54086, numindb: 2
Update: records affected: 1



GetName: 54086 STARLINK-5211

Hit Count: updated at: Fri, 09 Dec 2022 18:26:52 GMT